User: anonymous   Login
Location: *
(2.5500°S, 65.9667°W)
Time: 17:30:43
(UTC+00:00)
Language:

Courier 1B - Orbit

View from above orbital plane
View from above orbital plane
View from above satellite
View from above satellite

Ground track
Ground track

The orbit data is extracted from the following two-line orbital elements,

1    58U 60013A   24114.43498789  .00000164  00000-0  11609-3 0  9998
2    58  28.3262 161.5371 0164795 189.8030 169.9275 13.46372986128765
Epoch (UTC): 23 April 2024 10:26:22
Eccentricity: 0.0164795
inclination: 28.3262°
perigee height: 962 km
apogee height: 1208 km
right ascension of ascending node: 161.5371°
argument of perigee: 189.8030°
revolutions per day: 13.46372986
mean anomaly at epoch: 169.9275°
orbit number at epoch: 12876

The dashed part of the orbit path shows where the satellite is in the earth's shadow,  

DLR